FLOCK 4G 24

导读

FLOCK 4G 24是“鸽群”(Flock)星座中的一颗对地观测微小卫星,该星座由美国行星(Planet)公司打造,计划通过多星组网实现每日全球扫描成像,为商业用户提供中等分辨率地球影像。这颗卫星定于2025年1月14日发射,目前发射国家暂未公布(TBD)。作为低成本微小卫星,它顺应了商用小卫星的发展趋势,可搭载成像载荷,服务于对地观测领域。

基本信息
目录编号:
62637
目录名称:
FLOCK 4G 24
国际标识:
2025-009AE
轨道中心:
EARTH
卫星名称:
FLOCK 4G 24
卫星全名:
FLOCK 4G 24
卫星状态:
在轨 (已飞行598 天)
发射日期:
2025-01-14 UTC
国别 :
美国 (US)
星等 :
--
轨道信息
数据来源 国际轨道数据
星历时间: 2026-09-03T12:52:58+0800
1天前
查看轨道信息
半长轴: 6850.302km
偏心率: 0.0003431
轨道倾角: 97.398°
近地点辐角 41.363°
升交点赤经 328.245°
平近点角 318.787°
近地点: 469.814km
远地点: 474.516km
周期: 94.043分钟
每日圈数: 15.312224
详细信息
使用方式:
暂无
2D轨道图
3D轨道图
轨道高度分析图
轨道倾角分析图
轨道综合分析图
查看轨道综合分析图
交会数据列表
事件ID 空间交会对象 最接近时刻(TCA) 交会距离 交会风险概率(CRP) 交会风险指数(CRI) 操作
CDM_260906-221705-263506-263721
2026-09-06T
22:17:44+0000
1.865 km
极远距离
3.439652E-6 低风险 0.46
CDM_260906-185904-942106-263721
2026-09-06T
18:59:09+0000
1.873 km
极远距离
3.349455E-6 低风险 0.45
CDM_260904-145306-263706-393021
2026-09-04T
14:53:11+0000
2.665 km
极远距离
1.560206E-6 低风险 0.39